Aérodrome :
LOGIN :

S'inscrire | Disclaimer

   EN    FR    IT 

 










Légende :    VFR   VFR Marginal   IFR   IFR Intensif   IFR Très Intensif
Visi : 
Plafond : 
>= 8 km
>= 3000ft
5 à 8 km
1000 à 3000 ft
1500m à 5 km
500 à 1000 ft
800 à 1500m
200 à 500 ft
< 800m
< 200 ft
Symboles :   Orages  Brouillard  Fortes neiges  Fortes précipitations  Vent > 20 kt
SIGMETs :   Divers  Orages  Givrage  Turbulence  Onde Orograph.  Cendres Volcan.







- Altitude de l'aérodrome : 313 ft
- Voir les cartes d'approche


LFQA - Reims-Prunay

DERNIER METAR :
  • 251400Z AUTO 36009KT 330V050 CAVOK 10/M01 Q1011

METARs EXPIRÉS :
  • 251330Z AUTO 36007KT 330V030 CAVOK 09/M02 Q1011
  • 251300Z AUTO 34007KT 300V030 CAVOK 09/M02 Q1011
  • 251230Z AUTO 35009KT 320V050 CAVOK 09/M03 Q1012
  • 251200Z AUTO 36006KT 330V050 CAVOK 08/M03 Q1012
  • 251130Z AUTO 36008KT 330V050 CAVOK 08/M03 Q1012

TAF N/A
Pas de NOTAMs connus pour ce terrain.



MET'MAP, la Météo Aéronautique d'un coup d'oeil ! - Copyright ORBIFLY Décembre 2007 - Disclaimer

ORBIFLY MET'MAP TEAM :

Programmation & Développement : Alexandra Zaïnal
Conception & Développement : Baudouin d'Aumeries
Co-Programmation & Développement : Marc-Olivier Méhu
Soutien technique & logistique : Manuel Goepfert

Contact : metmap@orbifly.com




SOURCES & CREDITS :

   NOAA